Regional Weather Roundup
Issued by NWS Sioux Falls, SD

Home | Current Version | Previous Version | Graphics & Text | Print | Product List | Glossary Off
Versions: 1 2 3 4 5 6 7 8 9 10 11 12 13 14 15 16 17 18 19 20 21 22 23 24 25 26 27 28 29 30 31 32 33 34 35 36 37 38 39 40 41 42 43 44 45 46 47 48 49 50

000
ASUS43 KFSD 260502
RWRFSD

WEATHER ROUNDUP FOR SE SOUTH DAKOTA/SW MINNESOTA/NW IOWA
NATIONAL WEATHER SERVICE SIOUX FALLS SD
1200 AM CDT THU APR 26 2018

NOTE: "FAIR" INDICATES FEW OR NO CLOUDS BELOW 12,000 FEET WITH NO
SIGNIFICANT WEATHER AND OR OBSTRUCTIONS TO VISIBILITY.


SDZ038>040-050-052>070-260600-
SOUTHEAST SOUTH DAKOTA

CITY           SKY/WX    TMP DP  RH WIND       PRES   REMARKS
BROOKINGS      CLOUDY    46  33  60 S9        29.92F
CHAMBERLAIN    CLOUDY    52  33  48 S10       29.88F
HURON          CLOUDY    48  36  63 S10       29.88F
MADISON        FAIR      45  34  65 S10       29.92F
MITCHELL       MOCLDY    50  36  58 S10       29.91F
SIOUX FALLS    CLOUDY    49  30  48 SW5       29.94F
WINNER         FAIR      55  28  35 S22G28    29.86F
YANKTON        CLOUDY    49  32  52 S7        29.96F
$$

MNZ071-072-080-081-089-090-097-098-260600-
SOUTHWEST MINNESOTA

CITY           SKY/WX    TMP DP  RH WIND       PRES   REMARKS
FAIRMONT       CLOUDY    42  38  85 S7        29.96F
JACKSON        CLOUDY    45  32  61 S7        29.97F
LUVERNE        CLOUDY    41  30  65 SW3       29.96F
MARSHALL       PTCLDY    43  34  70 S7        29.93F
MONTEVIDEO     CLOUDY    46  37  71 SW6       29.91F
PIPESTONE      CLOUDY   N/A N/A N/A S7        29.94F
REDWOOD FALLS  CLOUDY    45  34  65 S8        29.93F
TRACY          CLOUDY    47  35  64 SW12      29.93F
WINDOM         CLOUDY    45  27  49 S3        29.95F
WORTHINGTON    CLOUDY    44  33  65 S7        29.96F
$$

IAZ001>003-012>014-020>022-031-032-NEZ013-014-SDZ071-260600-
NORTHWEST IOWA

CITY           SKY/WX    TMP DP  RH WIND       PRES   REMARKS
CHEROKEE       CLOUDY    41  33  73 CALM      29.98F
DENISON        CLOUDY    41  30  65 CALM      30.00F
ESTHERVILLE    CLOUDY    42  37  82 S6        29.96F
LE MARS        CLOUDY    43  34  70 CALM      29.97F
ORANGE CITY    CLOUDY    48  30  49 CALM      29.97F
SHELDON        PTCLDY    41  30  65 CALM      29.95F
SIOUX CITY     CLOUDY    43  35  73 SW6       29.98F
SPENCER        PTCLDY    42  33  70 S6        29.97F
STORM LAKE     CLOUDY    46  28  49 S7        29.98F
$$

ABBREVIATIONS USED IN REMARKS
   TC - TEMPERATURE IN CELSIUS
  WCI - WIND CHILL INDEX
   HX - HEAT INDEX
  VSB - VISIBILITY





USA.gov is the U.S. government's official web portal to all federal, state and local government web resources and services.